Weather in Novyy Mir

Russia / Kurgan Oblast     55°20′05″N   64°30′16″E
temp.,
°C
wind,
m/s
gust,
m/s
humid.,
%
clouds,
%
prec.,
mm/h
press.,
hPa
HPBL,
m
13 may, thu
thu1323:00+15ne335372 0.0 102628
02:00+13e115729 0.0 102610
05:00+13wsw2259100 0.0 102712
08:00+19w454561 0.0 1026334
11:00+24wnw563667 0.0 10251447
14:00+26nw67315 0.0 10242150
17:00+26nnw67285 0.0 10232283
20:00+22nw33445 0.0 102440
14 may, fri
fri1423:00+18n35535 0.0 102560
02:00+16ese34645 0.0 102647
05:00+15se226812 0.0 102711
08:00+21sse23505 0.0 1027306
11:00+26ssw33365 0.0 10271347
14:00+28wsw34284 0.0 10252689
17:00+29w35255 0.0 10242883
20:00+24ssw333713 0.0 102317
15 may, sat
sat1523:00+21ssw494522 0.0 1023136
02:00+19wsw46491 0.0 102383
05:00+17wnw365724 0.0 102374
08:00+23wnw45435 0.0 1024271
11:00+28wnw56315 0.0 10231460
14:00+30wnw672693 0.0 10222510
17:00+30wnw682561 0.0 10212857
20:00+25wsw45395 0.0 101956
16 may, sun
sun1623:00+21w464541 0.0 102088
02:00+19wnw61452100 0.0 1020297
05:00+17nw376224 0.0 1020112
08:00+23wnw354631 0.0 1021361
11:00+28nw45375 0.0 10211309
14:00+30nw45268 0.0 10202316
17:00+31wnw55246 0.0 10192577
20:00+26w23365 0.0 101815
17 may, mon
mon1723:00+22wsw33375 0.0 101822
02:00+19wnw34465 0.0 101848
05:00+18w455278 0.0 101969
08:00+23wnw344317 0.1 1019213
11:00+29wnw46284 0.1 10171746
14:00+31wnw68245 0.0 10163532
17:00+30wnw782112 0.0 10152631
20:00+24w483842 0.0 1014148